Location: Ambatotampy
(18.8181°S, 47.6186°E)
Time: 23:59:37
(UTC+00:00)

GPS 2-15 Rocket1 - Pass Details

Date: 21 January 2021
Orbit: 624 x 675 km, 19.8° (Epoch: 24 February)

Event Time Altitude Azimuth Distance (km) Brightness Sun altitude
Exits shadow 00:26:57 38° 46° (NE) 999 4.1 -26.3°
Drops below altitude 10° 00:30:10 10° 65° (ENE) 2,076 6.1 -25.7°
Sets 00:32:36 0° 69° (ENE) 2,994 7.0 -25.2°
